Time,TemperatureF,DewpointF,PressureIn,WindDirection,WindDirectionDegrees,WindSpeedMPH,WindSpeedGustMPH,Humidity,HourlyPrecipIn,Conditions,Clouds,dailyrainin,SoftwareType,DateUTC
2014-11-20 00:18:00,32.0,24.0,30.04,West,267,3.0,16.0,73,0.00,,,0.79,,2014-11-20 05:18:00,
2014-11-20 00:45:00,32.0,24.0,30.05,West,270,2.0,15.0,73,0.00,,,0.79,,2014-11-20 05:45:00,
2014-11-20 01:15:00,31.0,24.0,30.05,WSW,238,4.0,17.0,76,0.00,,,0.79,,2014-11-20 06:15:00,
2014-11-20 01:43:00,29.0,23.0,30.06,WNW,298,4.0,10.0,77,0.00,,,0.79,,2014-11-20 06:43:00,
2014-11-20 02:13:00,28.0,22.0,30.06,WSW,258,2.0,13.0,78,0.00,,,0.79,,2014-11-20 07:13:00,
2014-11-20 02:42:00,26.0,20.0,30.07,NW,307,4.0,11.0,77,0.00,,,0.79,,2014-11-20 07:42:00,
2014-11-20 03:12:00,24.0,18.0,30.09,WNW,290,2.0,8.0,79,0.00,,,0.79,,2014-11-20 08:12:00,
2014-11-20 03:42:00,23.0,18.0,30.08,West,279,2.0,7.0,80,0.00,,,0.79,,2014-11-20 08:42:00,
2014-11-20 04:13:00,23.0,18.0,30.08,West,276,3.0,10.0,81,0.00,,,0.79,,2014-11-20 09:13:00,
2014-11-20 04:44:00,23.0,17.0,30.08,West,269,2.0,10.0,79,0.00,,,0.79,,2014-11-20 09:44:00,
2014-11-20 05:13:00,23.0,18.0,30.08,WSW,256,2.0,6.0,81,0.00,,,0.79,,2014-11-20 10:13:00,
2014-11-20 05:43:00,24.0,19.0,30.08,WSW,238,4.0,8.0,80,0.00,,,0.79,,2014-11-20 10:43:00,
2014-11-20 06:13:00,24.0,18.0,30.09,West,261,3.0,10.0,79,0.00,,,0.79,,2014-11-20 11:13:00,
2014-11-20 06:42:00,24.0,19.0,30.09,WSW,241,7.0,12.0,80,0.00,,,0.79,,2014-11-20 11:42:00,
2014-11-20 07:13:00,24.0,19.0,30.09,WSW,244,5.0,11.0,80,0.00,,,0.79,,2014-11-20 12:13:00,
2014-11-20 07:42:00,24.0,18.0,30.10,WSW,256,6.0,12.0,79,0.00,,,0.79,,2014-11-20 12:42:00,
2014-11-20 08:12:00,24.0,19.0,30.11,WSW,251,3.0,7.0,82,0.00,,,0.79,,2014-11-20 13:12:00,
2014-11-20 08:42:00,24.0,18.0,30.13,WNW,283,2.0,12.0,78,0.00,,,0.79,,2014-11-20 13:42:00,
2014-11-20 09:12:00,25.0,17.0,30.14,WNW,288,2.0,10.0,71,0.00,,,0.79,,2014-11-20 14:12:00,
2014-11-20 09:22:00,24.0,15.0,30.14,NW,304,4.0,11.0,67,0.00,,,0.79,,2014-11-20 14:22:00,
2014-11-20 09:43:00,26.0,15.0,30.14,West,260,8.0,15.0,62,0.00,,,0.79,,2014-11-20 14:43:00,
2014-11-20 09:52:00,27.0,15.0,30.15,WSW,249,7.0,17.0,59,0.00,,,0.79,,2014-11-20 14:52:00,
2014-11-20 10:12:00,28.0,15.0,30.15,West,269,5.0,16.0,58,0.00,,,0.79,,2014-11-20 15:12:00,
2014-11-20 10:44:00,28.0,15.0,30.15,WSW,258,4.0,13.0,57,0.00,,,0.79,,2014-11-20 15:44:00,
2014-11-20 11:13:00,27.0,14.0,30.16,West,264,4.0,13.0,58,0.00,,,0.79,,2014-11-20 16:13:00,
2014-11-20 11:43:00,29.0,15.0,30.16,WSW,241,7.0,17.0,55,0.00,,,0.79,,2014-11-20 16:43:00,
2014-11-20 12:13:00,32.0,16.0,30.16,WSW,258,5.0,17.0,52,0.00,,,0.78,,2014-11-20 17:13:00,
2014-11-20 12:43:00,31.0,15.0,30.15,WSW,257,12.0,19.0,52,0.00,,,0.78,,2014-11-20 17:43:00,
2014-11-20 13:13:00,32.0,16.0,30.13,WSW,245,11.0,19.0,52,0.00,,,0.77,,2014-11-20 18:13:00,
2014-11-20 13:43:00,34.0,17.0,30.12,WSW,256,6.0,14.0,50,0.00,,,0.76,,2014-11-20 18:43:00,
2014-11-20 14:12:00,33.0,17.0,30.12,WSW,245,9.0,18.0,51,0.04,,,0.76,,2014-11-20 19:12:00,
2014-11-20 14:43:00,33.0,17.0,30.12,WSW,241,9.0,17.0,51,0.04,,,0.75,,2014-11-20 19:43:00,
2014-11-20 15:12:00,34.0,17.0,30.12,WSW,243,7.0,13.0,49,0.00,,,0.75,,2014-11-20 20:12:00,
2014-11-20 15:42:00,34.0,17.0,30.12,West,259,7.0,17.0,50,0.00,,,0.75,,2014-11-20 20:42:00,